Printer-friendly version

IAU Minor Planet Center

Minor Planet Center

MPEC 2005-Y24 : 2005 YX1

The following Minor Planet Electronic Circular may be linked-to from your own Web pages, but must not otherwise be redistributed electronically.


Read MPEC 2005-Y23 Read MPEC 2005-Y25


M.P.E.C. 2005-Y24                                Issued 2005 Dec. 23, 17:20 UT

     The Minor Planet Electronic Circulars contain information on unusual
         minor planets and routine data on comets.  They are published
   on behalf of Commission 20 of the International Astronomical Union by the
          Minor Planet Center, Smithsonian Astrophysical Observatory,
                          Cambridge, MA 02138, U.S.A.

                  Supported in part by the Brinson Foundation
                  Supported in part by the TABASGO Foundation
             Prepared using the Tamkin Foundation Computer Network

                              MPC@CFA.HARVARD.EDU
          URL http://cfa-www.harvard.edu/iau/mpc.html  ISSN 1523-6714

                                   2005 YX1

Observations:
     K05Y01X* C2005 12 21.43513 07 00 30.85 +40 42 14.9          19.6 V EY024703
     K05Y01X  C2005 12 21.44331 07 00 29.88 +40 42 20.3          19.2 V EY024703
     K05Y01X  C2005 12 21.45155 07 00 29.26 +40 42 26.0          19.0 V EY024703
     K05Y01X  C2005 12 21.45979 07 00 28.40 +40 42 31.1          19.3 V EY024703
     K05Y01X  C2005 12 21.47541 07 00 26.89 +40 42 42.8          19.2 V EY024703
     K05Y01X  C2005 12 21.48329 07 00 26.10 +40 42 48.2          19.3 V EY024703
     K05Y01X  C2005 12 21.49117 07 00 25.34 +40 42 53.8          19.3 V EY024703
     K05Y01X  C2005 12 21.49912 07 00 24.58 +40 42 58.1          19.0 V EY024703
     K05Y01X  C2005 12 21.93375 06 59 44.17 +40 48 05.9          19.8 R EY024143
     K05Y01X  C2005 12 21.93752 06 59 43.82 +40 48 08.7          19.4 R EY024143
     K05Y01X  C2005 12 21.94129 06 59 43.48 +40 48 11.0          19.4 R EY024143
     K05Y01X  C2005 12 21.94506 06 59 43.12 +40 48 13.8          19.5 R EY024143
     K05Y01X  C2005 12 22.12726 06 59 26.11 +40 50 20.3          19.1 R EY024734
     K05Y01X  C2005 12 22.12873 06 59 25.99 +40 50 22.0          19.1 R EY024734
     K05Y01X  C2005 12 22.13021 06 59 25.84 +40 50 23.6          19.2 R EY024734
     K05Y01X  C2005 12 22.13315 06 59 25.48 +40 50 26.3          19.6 R EY024734
     K05Y01X  C2005 12 22.30889 06 59 08.66 +40 52 29.4          19.1 V EY024703
     K05Y01X  C2005 12 22.31909 06 59 07.65 +40 52 36.4          19.2 V EY024703
     K05Y01X  C2005 12 22.32934 06 59 06.68 +40 52 44.1          18.9 V EY024703
     K05Y01X  C2005 12 22.42695 06 58 56.93 +40 53 50.9          20.7   EY024704
     K05Y01X  C2005 12 22.44058 06 58 55.80 +40 54 00.3          19.6   EY024704
     K05Y01X  C2005 12 22.45417 06 58 54.62 +40 54 09.3          19.7   EY024704
     K05Y01X  C2005 12 22.46776 06 58 53.14 +40 54 18.5          19.4   EY024704
     K05Y01X  C2005 12 23.21795 06 57 42.34 +41 02 53.3          19.1 R EY024854
     K05Y01X  C2005 12 23.22099 06 57 42.13 +41 02 55.0          19.1 R EY024854
     K05Y01X  C2005 12 23.22676 06 57 41.55 +41 02 59.8          19.0 R EY024854

Observer details:
143 Gnosca.  Observer S. Sposetti.  0.40-m f/4 reflector + CCD.
703 Catalina Sky Survey.  Observer R. A. Kowalski.  Measurers E. C. Beshore,
    E. J. Christensen, G. J. Garradd, A. D. Grauer, R. E. Hill, R. A. Kowalski,
    S. M. Larson, R. H. McNaught.  0.68-m Schmidt + CCD.
704 Lincoln Laboratory ETS, New Mexico.  Observers M. Bezpalko, L. Manguso,
    D. Torres, R. Kracke, A. Milner, H. Love.  Measurers J. Stuart, R. Sayer,
    J. Evans, J. Kommers.  1.0-m f/2.15 reflector + CCD.
734 Farpoint Observatory.  Observer G. Hug.  0.7-m reflector + CCD.
854 Sabino Canyon Observatory, Tucson.  Observer J. E. McGaha.  0.36-m f/10.0
    Schmidt-Cassegrain + CCD.

Orbital elements:
2005 YX1
Epoch 2006 Mar. 6.0 TT = JDT 2453800.5                  MPC
M  61.98927              (2000.0)            P               Q
n   0.20682383     Peri.  277.57204     +0.88826370     +0.15280732
a   2.8318418      Node    74.42356     +0.07564270     +0.88150488
e   0.5156229      Incl.   26.72361     -0.45306267     +0.44676512
P   4.77           H   15.9           G   0.15           U   9
Residuals in seconds of arc
051221 703  1.1+  0.5+    051221 143  0.1-  0.2+    051222 703  0.3+  0.1+
051221 703  1.0-  0.2+    051221 143  0.1+  0.2-    051222 704  2.2-  0.3-
051221 703  0.9+  0.1+    051221 143  0.2+  0.1-    051222 704  0.0   0.1-
051221 703  0.2+  0.6-    051222 734  0.1+  0.6-    051222 704  1.5+  0.4-
051221 703  0.0   0.2+    051222 734  0.4+  0.1+    051222 704  0.3-  0.4-
051221 703  0.4-  0.1+    051222 734  0.3+  0.6+    051223 854  0.5-  0.2+
051221 703  0.4-  0.3+    051222 734  0.6-  1.2+    051223 854  0.4+  0.2-
051221 703  0.4-  1.0-    051222 703  0.2+  0.3-    051223 854  0.2+  0.6+
051221 143  0.3-  0.0     051222 703  0.0   0.5-

Ephemeris:
2005 YX1                 a,e,i = 2.83, 0.52, 27                  q = 1.3717
Date    TT    R. A. (2000) Decl.     Delta      r     Elong.  Phase     V
2005 12 16    07 08.73   +39 33.4    1.501    2.425   154.2    10.2    19.4
2005 12 26    06 53.23   +41 33.0    1.535    2.484   160.4     7.6    19.4
2006 01 05    06 37.11   +42 58.6    1.599    2.542   159.0     8.0    19.5
2006 01 15    06 22.50   +43 48.8    1.691    2.599   151.5    10.4    19.8
2006 01 25    06 11.04   +44 09.2    1.809    2.655   141.9    13.2    20.1
2006 02 04    06 03.55   +44 08.4    1.949    2.710   132.1    15.7    20.4
2006 02 14    06 00.20   +43 54.5    2.106    2.765   122.5    17.5    20.6
2006 02 24    06 00.64   +43 33.7    2.275    2.818   113.4    18.8    20.9
2006 03 06    06 04.35   +43 09.7    2.454    2.871   104.7    19.5    21.1
2006 03 16    06 10.80   +42 44.4    2.637    2.922    96.5    19.8    21.3
2006 03 26    06 19.44   +42 18.5    2.822    2.973    88.8    19.6    21.5
2006 04 05    06 29.84   +41 52.0    3.006    3.022    81.3    19.1    21.7
2006 04 15    06 41.62   +41 24.7    3.187    3.070    74.3    18.3    21.8
2006 04 25    06 54.46   +40 56.0    3.362    3.118    67.4    17.3    21.9
2006 05 05    07 08.10   +40 25.7    3.530    3.164    60.9    16.2    22.0

Kyle E. Smalley              (C) Copyright 2005 MPC           M.P.E.C. 2005-Y24

Read MPEC 2005-Y23 Read MPEC 2005-Y25


Our Web policy. Index to the CBAT/MPC/ICQ pages.


Valid HTML 4.01!